TIME,DELAY(SENSOR),PRES,T(CTD),SAL,OXYGEN,RAWTEMP,T(OPTODE),TCPHASE,FLUOR,BETA(BETA700),BETA(BETA412),BETA(BETA440),CDOM,C(CSC),ED(ED412.40),ED(ED444.00),ED(ED489.70),ED(ED554.30),LU(LU411.80),LU(LU443.40),LU(LU489.60),LU(LU554.10),COMP,TILTX,TILTX(TILTY),CHECK
1357594714,5808,495.8500061035156000,6.2458000183105470,34.1627006530761700,62.5853805541992200,611.3499755859375000,6.2170009613037110,51.2189598083496100,52,103,89,79,80,15089,2147749065,2147423387,2148009142,2147874020,2147630317,2147071990,2148249453,2147197385,288,4,13,12863
1357594859,5810,484.0899963378906000,6.3632001876831055,34.1488990783691400,67.1762084960937500,607.5789794921875000,6.3391609191894530,50.5792503356933600,52,104,87,81,79,15089,2147747757,2147422994,2148007424,2147874486,2147632283,2147069668,2148247085,2147198582,283,4,12,22985
1357594991,5805,473.7399902343750000,6.4602999687194820,34.1249008178710940,74.5846328735351600,604.2772216796875000,6.4460110664367680,49.6156501770019500,50,105,86,79,80,15090,2147744749,2147422162,2148008822,2147876022,2147628909,2147068617,2148243739,2147195410,3037,4,13,28449
1357595160,5806,459.2399902343750000,6.7540998458862305,34.1102981567382800,86.5875930786132800,595.0646972656250000,6.7435798645019530,48.0789413452148440,51,104,87,80,79,15090,2147750016,2147425526,2148009133,2147873654,2147631094,2147077677,2148241865,2147198994,840,4,13,45331
1357595269,5809,448.2200012207031000,6.9857997894287110,34.1055984497070300,92.4403381347656200,587.2091064453125000,6.9966869354248050,47.3070487976074200,51,104,90,80,79,15089,2147748425,2147422875,2148007533,2147873069,2147628909,2147074523,2148243940,2147198226,1350,4,13,40037
1357595389,5802,436.4899902343750000,7.1020998954772950,34.1016998291015600,98.2160110473632800,584.3762207031250000,7.0878238677978520,46.6405487060546900,51,103,83,80,79,15088,2147747017,2147421339,2148006692,2147872841,2147626651,2147078912,2148245412,2147202112,1473,4,13,47596
1357595512,5809,424.7000122070312500,7.3839001655578610,34.0955009460449200,106.9148025512695300,575.4313964843750000,7.3751068115234375,45.5907897949218750,51,105,90,81,78,15088,2147747501,2147423186,2148003437,2147873654,2147628900,2147080740,2148244873,2147197805,2230,4,13,27960
1357595633,5806,414.1900024414062500,7.6585001945495605,34.0993995666503900,115.4173965454101600,567.1564941406250000,7.6402401924133300,44.6103210449218750,50,103,86,80,77,15087,2147744777,2147424694,2148002148,2147876288,2147624722,2147082624,2148236608,2147202834,1600,4,13,16451
1357595755,5807,403.9599914550781000,7.8259000778198240,34.0942993164062500,123.6025009155273400,561.9495849609375000,7.8067669868469240,43.7433509826660160,51,104,90,81,77,15089,2147740397,2147423442,2148005549,2147873142,2147625225,2147082578,2148235931,2147203062,1307,4,13,56670
1357595887,5806,393.6000061035156000,8.0369997024536130,34.0876998901367200,132.8621063232422000,554.9802856445312000,8.0292930603027340,42.7823181152343750,51,103,86,79,76,15087,2147742756,2147423561,2148007067,2147873600,2147622720,2147082486,2148235419,2147201243,2205,4,13,31070
1357596041,5809,382.8299865722656000,8.4233999252319340,34.0864982604980500,141.8677062988281200,542.9257812500000000,8.4132404327392580,41.7921981811523440,50,103,87,79,75,15086,2147743442,2147420992,2148007369,2147875318,2147621220,2147083593,2148236315,2147198180,2856,4,13,19395
1357596186,5808,371.2300109863281000,8.8294000625610350,34.0896987915039060,154.4636993408203000,528.7595214843750000,8.8629512786865230,40.5135688781738300,50,105,86,79,74,15087,2147743360,2147420937,2148003355,2147873947,2147617773,2147088009,2148231680,2147201810,3263,4,13,34764
1357596306,5811,360.0299987792969000,9.2070999145507810,34.0895996093750000,164.7492980957031200,517.8181762695312000,9.2092227935791020,39.5323486328125000,50,105,89,80,73,15090,2147740580,2147421805,2148003776,2147873225,2147614738,2147096018,2148232329,2147203136,1720,3,13,24323
1357596418,5809,349.1900024414062500,9.6253995895385740,34.0937004089355500,175.2577056884765600,505.1453857421875000,9.6091890335083000,38.5494194030761700,49,103,88,81,72,15085,2147741056,2147423058,2148005165,2147872064,2147615168,2147096246,2148235666,2147201984,911,4,13,1497
1357596528,5807,338.2600097656250000,9.7190999984741210,34.0998992919921900,181.7733001708984400,501.8815917968750000,9.7120103836059570,38.0396003723144500,50,104,87,80,73,15089,2147740114,2147424731,2148008155,2147872082,2147607094,2147100105,2148230253,2147205558,1704,3,13,37732
1357596638,5805,326.9400024414062500,10.0289001464843750,34.1050987243652340,185.8898010253906200,492.1400146484375000,10.0184698104858400,37.5968589782714840,49,105,88,80,72,15086,2147738294,2147426157,2148008283,2147871780,2147612726,2147098441,2148234267,2147202038,2331,4,13,262
1357596747,5810,316.1199951171875000,10.4624004364013670,34.1150016784668000,190.3394012451172000,478.7322998046875000,10.4392099380493160,37.0779495239257800,49,104,87,81,72,15085,2147738514,2147425298,2148011931,2147872256,2147607862,2147101092,2148227364,2147203501,3457,4,13,24475
1357596887,5810,306.4800109863281000,11.2916002273559570,34.1427001953125000,199.3190002441406200,452.9083862304687500,11.2463798522949220,36.0818099975585940,48,105,86,81,69,15086,2147735762,2147428068,2148020169,2147875565,2147608557,2147108370,2148225682,2147205238,1103,4,14,59177
1357597117,5812,295.2099914550781000,12.2906999588012700,34.1941986083984400,208.6649017333984400,418.5367126464844000,12.3148698806762700,34.9689102172851560,48,103,86,80,68,15087,2147732013,2147429888,2148018331,2147872576,2147604096,2147116626,2148221321,2147206308,2935,3,14,40992
1357597292,5809,283.6700134277344000,13.1564998626708980,34.2337989807128900,211.5491027832031200,391.7929992675781000,13.1422004699707030,34.3843803405761700,49,103,87,79,67,15081,2147727680,2147429366,2148018880,2147871414,2147598153,2147124708,2148214774,2147208320,3135,4,14,31233
1357597425,5810,272.2000122070312500,13.9029998779296880,34.2869987487793000,210.6199035644531200,367.5755920410156000,13.8887901306152340,34.0663795471191400,48,105,86,80,67,15079,2147725723,2147434304,2148029238,2147872932,2147594660,2147128091,2148218084,2147210130,2968,3,13,26759
1357597534,5810,261.4500122070312500,14.2819995880126950,34.3333015441894500,207.7427062988281200,354.8279113769531000,14.2809200286865230,34.0391998291015600,49,102,87,79,69,15080,2147725129,2147434925,2148036589,2147877074,2147591853,2147137526,2148215515,2147209024,1947,3,14,14554
1357597656,5810,250.1699981689453000,15.1293001174926760,34.4129981994628900,207.5023956298828000,327.7413940429687500,15.1124601364135740,33.6478881835937500,49,103,88,79,68,15078,2147720118,2147444251,2148047707,2147877796,2147587154,2147141686,2148217188,2147207936,2525,4,14,3549
1357597776,5807,239.7799987792968800,15.8158998489379880,34.4907989501953100,208.5800018310547000,305.3811950683594000,15.7974901199340820,33.2574615478515600,49,101,85,81,67,15078,2147719049,2147450934,2148067785,2147870317,2147585307,2147154816,2148222601,2147212772,3220,3,14,17407
1357597929,5807,229.1199951171875000,16.5435009002685550,34.5906982421875000,210.2877044677734400,279.8414001464844000,16.5787391662597660,32.7914695739746100,49,103,87,79,66,15072,2147718473,2147463049,2148087716,2147871917,2147581248,2147169408,2148225462,2147211904,81,3,14,31866
1357598084,5810,217.7700042724609400,17.6196002960205080,34.7327995300293000,211.3632049560547000,246.3963928222656200,17.6006107330322270,32.2573814392089840,50,102,85,80,64,15071,2147722084,2147489453,2148143104,2147871881,2147576557,2147196022,2148256914,2147215314,2554,3,14,35229
1357598215,5811,206.2700042724609400,18.2224006652832030,34.8158988952636700,211.8193969726562500,224.2382049560547000,18.2772903442382800,31.9233894348144530,50,101,89,80,65,15071,2147728356,2147530075,2148219392,2147872950,2147578331,2147226139,2148285385,2147220827,3265,3,15,6067
1357598311,5809,197.5599975585937500,18.7276000976562500,34.8847007751464840,214.3408050537109400,210.0384979248047000,18.7109508514404300,31.5904197692871100,50,101,88,79,65,15068,2147740918,2147589604,2148328192,2147872850,2147580352,2147259858,2148336950,2147223241,949,2,14,59524
1357598365,5809,192.8800048828125000,18.8398990631103500,34.9080009460449200,215.6174926757812500,204.8441009521484400,18.8696098327636720,31.4509105682373050,50,103,86,79,65,15070,2147757001,2147667840,2148479341,2147872594,2147584512,2147304502,2148409444,2147232868,1231,2,15,55843
1357598419,5811,188.2400054931640600,19.0226993560791000,34.9322013854980500,216.5473937988281200,199.9904022216797000,19.0178794860839840,31.3356895446777340,49,100,89,80,64,15070,2147770294,2147718299,2148570450,2147876160,2147592064,2147343497,2148458934,2147233435,1211,3,15,48275
1357598473,5808,183.7400054931640600,19.3458003997802730,34.9875984191894500,216.9631042480468800,189.0726928710937500,19.3514499664306640,31.1655807495117200,50,102,89,79,64,15069,2147822445,2147928356,2149001170,2147875986,2147614692,2147466523,2148669485,2147250002,1344,3,15,7055
1357598527,5810,179.6100006103515600,19.5669994354248050,35.0273017883300800,218.7597045898437500,181.5422973632812500,19.5816001892089840,30.9696197509765620,50,99,89,80,63,15070,2147838610,2147977252,2149072192,2147876717,2147621979,2147509961,2148715629,2147255643,1461,2,15,27811
1357598581,5807,175.7400054931640600,19.8092994689941400,35.0643997192382800,219.9120941162109400,174.0540924072265600,19.8105297088623050,30.8092994689941400,50,101,87,80,63,15066,2147846930,2147970057,2149029120,2147875483,2147623963,2147512173,2148694939,2147255899,1069,2,16,40677
1357598659,5810,171.0000000000000000,20.2553997039794920,35.1291999816894500,221.0216064453125000,160.4640960693359400,20.2262191772460940,30.5712108612060550,51,101,87,79,63,15063,2147842770,2147898084,2148849984,2147875264,2147622564,2147466285,2148604608,2147244214,908,2,15,43128
1357598735,5811,167.4100036621093800,20.3680000305175780,35.1492004394531250,222.0034942626953000,155.8791046142578000,20.3665409088134770,30.4601707458496100,52,100,84,80,64,15060,2147867593,2147964086,2148958208,2147875410,2147634166,2147518436,2148665874,2147254006,34,2,15,17828
1357598822,5810,163.6199951171875000,20.5734004974365230,35.1752014160156250,222.7368011474609400,149.2711029052734400,20.5688304901123050,30.3355598449707030,53,102,86,80,64,15058,2147899181,2148030025,2149062180,2147876644,2147649782,2147569654,2148714139,2147256009,3122,2,16,1512
1357598920,5809,159.4900054931640600,20.7747993469238280,35.1980018615722660,223.1959991455078000,142.7864074707031200,20.7674407958984380,30.2272396087646500,56,103,86,80,62,15059,2147922294,2148053074,2149087862,2147876406,2147658304,2147589760,2148729965,2147258550,2486,2,15,50314
1357599010,5809,155.3999938964843800,20.9115009307861330,35.2056999206543000,223.9906005859375000,138.3303070068359400,20.9039707183837900,30.1288509368896500,58,103,89,81,62,15052,2147992877,2148210998,2149340772,2147874505,2147691483,2147691721,2148859501,2147270235,2178,2,15,31370
1357599086,5805,151.5899963378906200,21.0965995788574220,35.2209014892578100,224.1929931640625000,132.4216003417968800,21.0850906372070300,30.0414905548095700,60,104,90,80,62,15046,2148068489,2148355730,2149559652,2147880502,2147725833,2147784758,2148969938,2147273289,2483,2,15,23686
1357599162,5807,147.7500000000000000,21.1678009033203120,35.2277984619140600,224.7763977050781200,130.5028991699218800,21.1439208984375000,29.9870891571044920,62,106,88,81,62,15043,2148172041,2148557778,2149878848,2147881673,2147772443,2147915181,2149134875,2147288219,3111,2,16,10739
1357599249,5810,143.3300018310547000,21.2597007751464840,35.2373008728027340,225.2953948974609400,126.6520996093750000,21.2620201110839840,29.9113006591796880,65,106,87,81,62,15044,2148368768,2148943414,2150506825,2147886272,2147865353,2148167076,2149452507,2147310957,448,2,15,12063
1357599328,5805,139.5099945068359400,21.3554992675781250,35.2424011230468750,225.8047027587890600,123.9340972900390600,21.3453998565673830,29.8505191802978500,70,107,85,81,62,15035,2148494253,2149109056,2150703917,2147892132,2147915748,2148234898,2149516324,2147317622,471,2,15,29938
1357599415,5808,135.7400054931640600,21.3715000152587900,35.2452011108398440,226.3903045654297000,123.2194976806640600,21.3673191070556640,29.8125000000000000,70,107,87,83,62,15036,2148459620,2148906057,2150268964,2147885897,2147902189,2148108086,2149314358,2147305846,3460,2,15,40174
1357599513,5811,131.5700073242187500,21.4358005523681640,35.2482986450195300,226.5411987304687500,120.3620986938476600,21.4550094604492200,29.7680702209472660,72,109,89,81,61,15034,2149323035,2150491145,2152811922,2147903936,2148293668,2149085961,2150580598,2147398637,107,2,16,8420
1357599613,5809,128.1600036621093800,21.6074008941650400,35.2658996582031250,227.5727996826172000,115.1278991699218800,21.6156902313232420,29.6497497558593750,76,111,88,80,61,15024,2148687478,2149088630,2150408000,2147890038,2148008457,2148216210,2149372772,2147310994,193,2,15,51764
1357599810,5807,124.6299972534179700,21.9244995117187500,35.2729988098144500,229.5791015625000000,105.3738021850586000,21.9153404235839840,29.4267101287841800,96,112,89,82,62,15007,2149661705,2150598957,2152687213,2147913609,2148427611,2149062281,2150442194,2147395574,2715,2,16,16318
1357600027,5805,119.9100036621093800,22.0830993652343750,35.2644004821777340,231.2082977294922000,100.5577011108398400,22.0634098052978500,29.2868194580078120,102,117,92,83,61,14988,2150131437,2150917641,2152812973,2147918546,2148619154,2149163062,2150478436,2147403931,3012,2,15,3414
1357600158,5810,115.9899978637695300,22.3430004119873050,35.2863006591796900,232.9949035644531200,91.8681335449218800,22.3307495117187500,29.0911998748779300,114,115,90,82,61,14984,2151967881,2153428269,2156357842,2147962706,2149337837,2150307117,2151819081,2147521910,1003,2,15,14340
1357600279,5808,111.9899978637695300,22.5466003417968750,35.2813987731933600,235.7447967529297000,84.9379577636718800,22.5441608428955080,28.8746700286865230,123,124,89,83,61,14954,2153335862,2154888841,2157974756,2147990820,2149828662,2150857874,2152421138,2147579538,2810,2,15,24250
1357600388,5807,108.0599975585937500,22.8845996856689450,35.2924995422363300,239.0695953369140600,75.0541229248046900,22.8488292694091800,28.5970802307128900,130,122,91,83,61,14940,2153290532,2154350957,2156674688,2147977627,2149806637,2150539757,2151945792,2147548553,3165,2,16,57268
1357600554,5810,104.0500030517578100,23.5592994689941400,35.2789993286132800,239.8609008789062500,52.2742385864257800,23.5525493621826170,28.2759304046630860,141,127,91,84,60,14928,2157570496,2159476141,2162680795,2148076178,2151436041,2152565604,2154084626,2147754093,3078,1,16,12529
1357600951,5809,99.6299972534179700,24.4001998901367200,35.2899017333984400,236.7955017089843800,25.3515701293945300,24.3873195648193360,28.0798301696777340,99,125,90,85,61,14947,2158279433,2159949339,2162405010,2148088182,2152224886,2153050075,2154203574,2147776402,3319,1,16,2413
1357601005,5810,97.5400009155273400,24.4309005737304700,35.2928009033203100,236.7008972167968800,24.2650203704834000,24.4210796356201170,28.0707492828369140,98,126,92,84,59,14942,2162043401,2164537965,2167780050,2148203501,2154138660,2155408347,2156658825,2148007872,3200,2,16,54832
1357601059,5806,95.3099975585937500,24.5338993072509770,35.2941017150878900,236.4058074951172000,21.2661094665527340,24.5143108367919920,28.0468406677246100,97,127,91,86,59,14947,2161622701,2163954176,2166831616,2148190948,2154338075,2155547538,2156740598,2147999698,2730,1,16,47563
1357601113,5808,93.0899963378906200,24.5618991851806640,35.2925987243652340,236.3296966552734400,20.3773403167724600,24.5419502258300780,28.0394706726074220,94,126,93,84,59,14946,2162743625,2165240813,2168118756,2148259611,2154763209,2155802971,2156662829,2148028562,2428,2,16,16602
1357601191,5808,89.6100006103515600,24.6100997924804700,35.2949981689453100,235.9158935546875000,18.2647304534912100,24.6076602935791000,28.0320396423339840,89,126,93,84,58,14945,2168011291,2171450358,2174971757,2148442514,2158137920,2159774189,2160635721,2148387556,2792,1,16,58337
1357601246,5808,86.4800033569336000,24.7180004119873050,35.3055992126464840,235.7176971435547000,15.1038398742675780,24.7060298919677730,28.0019493103027340,84,127,91,85,58,14938,2171831076,2175943058,2179751533,2148641837,2160726006,2162581796,2163102811,2148633472,2906,2,16,25154
1357601300,5807,83.5899963378906200,24.7614994049072270,35.3115997314453100,235.7171020507812500,13.5560503005981450,24.7542190551757800,27.9829292297363280,82,127,92,84,58,14948,2174668233,2179247808,2183047268,2148799122,2163065408,2165036498,2165149156,2148828845,2774,2,16,61316
1357601355,5821,80.8300018310546900,24.7703990936279300,35.3125991821289060,236.0397949218750000,13.1653099060058600,24.7663898468017580,27.9633007049560550,81,125,92,85,58,14951,2177099291,2181873014,2185421229,2148959579,2165602276,2167789513,2167214820,2149031149,2690,1,16,34839
1357601409,5809,78.3000030517578100,24.7745990753173830,35.3129997253418000,236.4261932373047000,12.9546499252319340,24.7729492187500000,27.9431991577148440,78,125,93,85,56,14949,2182069467,2187810706,2191849060,2149339062,2169422793,2171839753,2170756598,2149371666,2793,1,16,6009
1357601464,5807,75.8399963378906200,24.7766990661621100,35.3134002685546900,236.5798950195312500,12.8499097824096680,24.7762107849121100,27.9349098205566400,77,127,90,85,57,14939,2186591442,2193041472,2197224850,2149666998,2173346880,2175945389,2174060361,2149714889,3032,1,16,23984
1357601521,5808,73.4000015258789000,24.7830009460449220,35.3130989074707000,236.7454071044922000,12.6277399063110350,24.7831192016601560,27.9246406555175780,77,124,92,85,55,14947,2189884891,2196936630,2201292589,2150009654,2176794953,2179604626,2176869385,2150007094,3350,2,16,35402
1357601575,5804,71.1900024414062500,24.8493003845214840,35.3114013671875000,236.6372985839843800,10.7157602310180660,24.8426799774169920,27.9058990478515620,76,124,93,85,54,14946,2195189522,2202988800,2207282925,2150404617,2181575542,2184725440,2180901202,2150404790,3555,1,16,14281
1357601629,5806,69.2600021362304700,24.9193992614746100,35.3114013671875000,236.2490997314453000,8.3287687301635740,24.9170608520507800,27.8939990997314450,73,123,92,85,55,14939,2196780233,2204582784,2208451995,2150686061,2184022528,2187121526,2182485595,2150589659,3272,2,16,49740
1357601683,5807,67.6500015258789000,25.0100994110107420,35.3078994750976560,235.6885986328125000,5.7461590766906740,24.9975700378417970,27.8877792358398440,66,121,93,85,57,14951,2198849197,2207021778,2210793984,2150918820,2186854198,2189967926,2184491584,2150777545,2913,2,16,13265
1357601737,5808,66.4400024414062500,25.0160999298095700,35.3091011047363300,235.5054016113281200,5.1671857833862305,25.0156192779541000,27.8887901306152340,62,120,94,84,56,14944,2201908068,2210733814,2214987456,2151254628,2190174464,2193652260,2187150061,2151043565,3018,1,16,32353
1357601847,5810,62.9599990844726560,25.0179004669189450,35.3097000122070300,235.5361022949218800,5.0691342353820800,25.0186805725097660,27.8861007690429700,61,119,90,84,57,14946,2208296896,2217736740,2222145664,2152226203,2198780699,2202512036,2193273874,2151721042,3078,1,16,27706
1357601902,5809,60.3100013732910160,25.0179004669189450,35.3091011047363300,235.5993957519531200,5.0430707931518555,25.0195007324218750,27.8830890655517580,61,118,92,84,55,14948,2214682450,2224484361,2229431616,2153412141,2205936000,2209978870,2198710857,2152381714,3302,2,17,49494
1357601957,5808,57.5800018310546900,25.0172996520996100,35.3087005615234400,235.6365051269531200,5.0462179183959960,25.0193996429443360,27.8814296722412100,60,120,90,84,57,14948,2219753353,2229937426,2234998464,2154445458,2212299520,2216435099,2203213705,2152894948,3505,1,16,31901
1357602011,5809,54.7000007629394500,25.0167999267578120,35.3083992004394500,235.7339019775390600,5.0430707931518555,25.0195007324218750,27.8769493103027340,60,118,91,83,56,14949,2230811035,2242929874,2249459309,2156541092,2222242541,2226721042,2210875840,2153935698,3564,1,16,24930
1357602065,5810,51.5699996948242200,25.0174007415771500,35.3086013793945300,235.7371978759765600,5.0269417762756350,25.0200004577636720,27.8764896392822270,61,119,89,85,53,14946,2238065133,2249981714,2256236022,2158723876,2232527268,2237362669,2218791890,2154985371,3466,2,16,31644
1357602120,5811,48.1100006103515600,25.0168991088867200,35.3092994689941400,235.7747955322265600,5.0001921653747560,25.0208301544189450,27.8746395111084000,60,119,91,86,55,14949,2250072393,2263984585,2272221366,2162350226,2242657590,2248099108,2227008987,2156294226,3374,1,16,43309
1357602177,5804,44.3600006103515600,25.0177001953125000,35.3087997436523440,235.9853057861328000,4.8874859809875490,25.0243492126464840,27.8636798858642580,59,129,90,82,58,14944,2261100845,2276132708,2285383817,2166934838,2255188178,2260731968,2236366528,2157994532,3093,2,16,58265
1357602231,5808,40.7400016784668000,25.0210990905761720,35.3083992004394500,236.0906066894531200,4.8467688560485840,25.0256195068359380,27.8583106994628900,57,120,94,84,59,14945,2248162221,2258672420,2264033910,2166028992,2250347483,2253596644,2229315008,2157312896,2750,2,15,63504
1357602286,5808,37.1699981689453100,25.0205993652343750,35.3083992004394500,235.9947052001953000,4.7495040893554690,25.0286502838134770,27.8614292144775400,56,119,90,84,54,14940,2262880457,2273736640,2279498276,2173220699,2263535305,2264976585,2236697728,2159203446,2733,3,17,8716
1357602340,5808,33.7000007629394500,25.0202007293701170,35.3081016540527340,236.1875000000000000,4.6123089790344240,25.0329303741455080,27.8509597778320300,57,118,90,85,53,14947,2299919286,2317473664,2329722706,2187479350,2301739492,2307135451,2270956333,2165246637,2847,2,17,35741
1357602394,5810,30.2800006866455080,25.0226001739501950,35.3083992004394500,236.0863037109375000,4.8675208091735840,25.0249691009521500,27.8587398529052730,55,117,93,84,58,14945,2206405741,2205520886,2203012160,2160473837,2209573156,2204428635,2187150564,2153085494,2822,2,16,62636
1357602448,5805,26.8899993896484380,25.0214004516601560,35.3087005615234400,236.0749053955078000,4.9555420875549320,25.0222206115722660,27.8604602813720700,55,118,94,84,56,14942,2206784493,2204464685,2200790400,2161117293,2211482276,2204622217,2186239177,2153228992,2868,0,15,53596
1357602522,5805,22.7500000000000000,25.0223007202148440,35.3083992004394500,236.1269989013672000,4.9425601959228520,25.0226306915283200,27.8578090667724600,55,118,91,84,56,14949,2212198509,2208852800,2204419264,2164860964,2218121408,2209628672,2189044160,2154269696,2781,1,18,36346
